Greenville/Spartanburg, SC

5:32 AM EDT on May 25, 2018 (GMT -0400)
Greenville-Spartanburg International

Weather History for KGSP - March, 2014

Change the Weather History Date:

Monday, March 31, 2014

  Actual Average Record
Temperature  
Mean Temperature 60 °F 57 °F  
Max Temperature 77 °F 69 °F 86 °F (1986)
Min Temperature 43 °F 45 °F 24 °F (1964)
Degree Days  
Heating Degree Days 5 9  
Month to date heating degree days 477 384  
Since 1 July heating degree days 3036 2833  
Cooling Degree Days 0 0  
Month to date cooling degree days 0 8  
Year to date cooling degree days 0 8  
Growing Degree Days 10 (Base 50)    
Moisture  
Dew Point 22 °F    
Average Humidity 28    
Maximum Humidity 45    
Minimum Humidity 10    
Precipitation  
Precipitation 0.00 in 0.14 in 2.27 in (1962)
Month to date precipitation 4.09 4.52  
Year to date precipitation 10.33 12.31  
Snow  
Snow 0.00 in 0.00 in 1.00 in (1915)
Month to date snowfall T 0.9  
Since 1 July snowfall 7.2 4.7  
Snow Depth 0.00 in    
Sea Level Pressure  
Sea Level Pressure 30.07 in    
Wind  
Wind Speed 5 mph (SSW)    
Max Wind Speed 14 mph    
Max Gust Speed 20 mph    
Visibility 10 miles    
Events      
T = Trace of Precipitation, MM = Missing Value Source: NWS Daily Summary

Daily Weather History Graph

Daily Weather History Graph

Search for Another Location

Airport or City:

Astronomy

Mar. 31, 2014 Rise Set
Actual Time 7:17 AM EDT 7:49 PM EDT
Civil Twilight 6:51 AM EDT 8:14 PM EDT
Nautical Twilight 6:21 AM EDT 8:44 PM EDT
Astronomical Twilight 5:51 AM EDT 9:15 PM EDT
Moon 7:42 AM EDT (3/31) 9:03 PM EDT (3/31)
Length of Visible Light 13h 23m
Length of Day
12h 32m
New Moon, 1% of the Moon is Illuminated
Mar 31
New Moon
Apr 7
First Quarter
Apr 15
Full
Apr 22
Last Quarter
Apr 29
New

Hourly Weather History & Observations

Time (EDT) Temp. Windchill Dew Point Humidity Pressure Visibility Wind Dir Wind Speed Gust Speed Precip Events Conditions
12:53 AM 51.1 °F - 24.1 °F 35% 30.06 in 10.0 mi NNW 5.8 mph - N/A   Clear
1:53 AM 50.0 °F - 23.0 °F 35% 30.05 in 10.0 mi NW 8.1 mph 19.6 mph N/A   Clear
2:53 AM 50.0 °F - 21.0 °F 32% 30.04 in 10.0 mi WNW 5.8 mph - N/A   Clear
3:53 AM 50.0 °F - 19.0 °F 29% 30.03 in 10.0 mi NW 8.1 mph - N/A   Clear
4:53 AM 48.9 °F - 18.0 °F 29% 30.04 in 10.0 mi NW 10.4 mph - N/A   Clear
5:53 AM 46.9 °F - 19.0 °F 33% 30.04 in 10.0 mi Calm Calm - N/A   Clear
6:53 AM 46.0 °F - 19.9 °F 35% 30.06 in 10.0 mi Calm Calm - N/A   Clear
7:53 AM 43.0 °F 40.3 °F 23.0 °F 45% 30.09 in 10.0 mi SSE 4.6 mph - N/A   Clear
8:53 AM 51.1 °F - 26.1 °F 38% 30.11 in 10.0 mi South 3.5 mph - N/A   Clear
9:53 AM 57.9 °F - 21.0 °F 24% 30.12 in 10.0 mi SE 4.6 mph - N/A   Clear
10:53 AM 61.0 °F - 19.9 °F 21% 30.13 in 10.0 mi ESE 4.6 mph - N/A   Clear
11:53 AM 66.0 °F - 21.9 °F 19% 30.13 in 10.0 mi SSE 4.6 mph - N/A   Clear
12:53 PM 69.1 °F - 19.9 °F 15% 30.12 in 10.0 mi SSW 6.9 mph - N/A   Clear
1:53 PM 73.0 °F - 21.0 °F 14% 30.10 in 10.0 mi SSW 8.1 mph - N/A   Clear
2:53 PM 73.9 °F - 19.9 °F 13% 30.07 in 10.0 mi Calm Calm - N/A   Clear
3:53 PM 75.0 °F - 16.0 °F 11% 30.06 in 10.0 mi North - - N/A   Clear
4:53 PM 75.9 °F - 19.9 °F 12% 30.04 in 10.0 mi West 6.9 mph - N/A   Clear
5:53 PM 75.0 °F - 21.0 °F 13% 30.03 in 10.0 mi South 5.8 mph - N/A   Clear
6:53 PM 72.0 °F - 23.0 °F 16% 30.04 in 10.0 mi SSW 9.2 mph - N/A   Clear
7:53 PM 68.0 °F - 24.1 °F 19% 30.05 in 10.0 mi South 3.5 mph - N/A   Clear
8:53 PM 64.0 °F - 25.0 °F 23% 30.06 in 10.0 mi SSE 4.6 mph - N/A   Clear
9:53 PM 62.1 °F - 25.0 °F 24% 30.07 in 10.0 mi South 3.5 mph - N/A   Clear
10:53 PM 60.1 °F - 25.0 °F 26% 30.07 in 10.0 mi SSW 4.6 mph - N/A   Clear
11:53 PM 57.0 °F - 27.0 °F 32% 30.08 in 10.0 mi South 3.5 mph - N/A   Clear